Location: Newark
(31.0436°N, 112.2008°E)
Time: 23:24:04
(UTC+00:00)

Hubble Space Telescope - Visible Passes

Search period start: 26 January 2020 00:00
Search period end: 05 February 2020 00:00
Orbit: 536 x 540 km, 28.5° (Epoch: 25 January)

Date Brightness Start Highest point End Pass type
(mag) Time Alt. Az. Time Alt. Az. Time Alt. Az.
27 Jan 3.5 21:58:23 10° S 22:00:12 13° SSE 22:02:01 10° SE visible
28 Jan 3.3 21:46:56 10° SSW 21:49:29 16° SSE 21:52:03 10° ESE visible
29 Jan 2.9 21:37:12 16° S 21:38:47 20° SSE 21:41:49 10° ESE visible
30 Jan 2.5 21:27:36 23° S 21:28:06 24° SSE 21:31:27 10° ESE visible
31 Jan 2.4 21:17:52 28° SSE 21:17:52 28° SSE 21:21:00 10° ESE visible
31 Jan 1.3 22:54:18 10° WSW 22:58:20 56° S 23:02:22 10° E visible
01 Feb 2.6 21:08:03 27° SE 21:08:03 27° SE 21:10:29 10° E visible
01 Feb 1.2 22:43:39 10° WSW 22:47:42 59° S 22:51:46 10° E visible
02 Feb 3.0 20:58:09 23° ESE 20:58:09 23° ESE 20:59:57 10° E visible
02 Feb 1.1 22:33:29 13° WSW 22:37:04 61° S 22:41:09 10° E visible
03 Feb 3.5 20:48:12 18° ESE 20:48:12 18° ESE 20:49:22 10° E visible
03 Feb 1.0 22:23:32 18° WSW 22:26:27 61° S 22:30:31 10° ESE visible
04 Feb 3.8 20:38:13 13° E 20:38:13 13° E 20:38:47 10° E visible
04 Feb 1.1 22:13:33 24° WSW 22:15:50 59° S 22:19:52 10° ESE visible
